Wetbulb
40.18 41.57 42.66 43.75 44.83 45.74 47.23 50.47 54.11 55.80 56.06 59.02 59.59 60.06 60.86 62.57 63.57 66.38 64.44 65.30 66.26 64.91 64.52 63.59 62.55 61.97 61.23 60.14 59.15 56.47 57.77 58.03 59.08 57.78 57.18 57.75 58.24 57.79 57.72 58.55 58.41 58.69 58.97
38.92 40.23 41.38 42.86 44.29 45.11 46.32 48.69 53.07 55.20 56.15 58.03 59.53 59.03 59.99 61.43 62.93 65.42 65.44 64.31 66.41 65.18 64.38 63.27 62.27 61.70 61.20 59.23 58.13 57.68 58.22 58.97 59.48 57.53 56.48 54.79 56.37 57.23 57.77 57.84 58.27 57.59 58.09
38.64 40.05 40.35 41.73 43.25 44.75 45.85 47.73 51.80 54.53 55.96 57.20 59.07 59.23 60.62 60.22 61.00 62.55 64.70 63.37 65.59 65.45 64.59 63.72 62.98 61.67 61.43 59.48 58.36 58.56 59.38 58.30 58.84 58.99 57.20 53.05 52.73 54.87 56.28 56.01 56.22 56.13 55.85
39.58 40.22 40.53 41.08 43.00 44.46 47.05 48.67 51.00 54.42 55.83 56.80 56.91 57.70 58.18 58.03 60.24 62.69 63.64 63.69 64.53 65.23 64.55 63.58 62.83 61.89 61.40 59.64 58.88 59.56 60.31 60.17 59.41 58.63 59.63 58.03 56.47 53.71 53.24 54.92 54.66 55.10 54.79
40.27 38.94 40.66 42.58 44.38 45.50 47.08 50.87 51.97 54.01 55.56 56.40 56.82 57.28 57.07 58.59 60.48 61.51 63.14 63.33 63.76 65.04 64.29 63.59 62.51 61.43 61.17 60.02 59.33 59.70 60.86 61.23 60.18 58.56 58.10 57.08 56.79 56.01 53.38 51.43 52.98 54.18 53.67
41.56 43.00 42.18 43.92 45.20 45.87 48.67 51.92 53.78 54.60 55.89 56.63 57.93 58.19 57.81 58.39 59.86 60.88 61.35 62.47 63.20 64.18 64.18 63.88 62.92 61.51 60.96 59.84 60.04 60.76 61.24 61.08 60.47 59.50 59.23 57.94 56.34 55.34 54.30 52.23 51.66 52.58 52.37
42.19 43.47 41.68 42.63 45.59 47.43 49.97 52.03 53.31 53.39 55.00 56.25 56.98 57.84 58.93 59.23 59.45 60.37 61.10 61.91 62.42 62.85 63.28 63.00 62.09 61.01 61.02 60.98 61.29 61.24 61.11 60.79 60.72 60.57 59.87 59.09 58.29 57.54 56.13 54.24 52.42 51.46 50.93
43.65 43.52 44.64 44.40 45.37 48.32 50.31 51.45 52.36 52.85 54.79 55.58 55.65 57.06 59.58 60.36 60.39 61.48 62.10 61.97 62.22 62.44 62.43 62.14 61.90 61.28 61.35 61.61 61.79 61.64 61.44 61.34 60.90 60.29 60.05 59.15 58.84 58.79 57.13 55.58 52.48 49.84 49.14
42.80 44.39 45.07 45.71 46.21 48.46 49.97 51.58 52.49 53.15 55.18 55.28 56.41 57.12 59.00 59.52 60.62 61.49 62.25 62.33 62.49 62.11 61.54 61.40 61.24 61.46 61.55 61.68 61.67 61.33 60.77 61.27 60.69 60.46 60.11 58.93 58.91 58.78 58.27 56.94 54.43 52.15 47.33
42.22 44.06 44.41 45.74 47.33 49.57 51.24 51.52 53.42 53.72 55.81 56.72 57.30 58.16 58.60 58.42 58.32 61.06 61.18 61.41 61.41 61.60 61.20 61.02 61.29 61.43 61.53 61.54 61.46 61.03 60.62 60.60 59.88 59.97 59.47 58.13 57.18 57.58 57.50 56.79 55.26 53.54 50.75
44.13 43.64 44.88 48.06 50.10 51.49 51.97 52.89 54.51 54.37 55.91 57.22 57.18 57.48 57.85 57.75 57.94 60.16 60.85 60.89 60.99 61.17 61.31 61.15 61.12 61.17 60.93 61.13 61.08 60.51 59.69 60.12 59.40 59.12 59.44 57.62 56.83 56.69 55.71 55.42 53.63 52.55 50.77
47.78 46.77 48.44 50.63 51.31 52.18 52.45 54.21 54.30 55.62 56.48 57.95 57.25 56.84 56.75 57.50 58.53 60.14 60.09 60.72 60.38 61.12 61.44 61.29 60.92 60.72 60.54 60.65 60.62 59.82 59.72 59.52 58.95 58.99 58.53 56.87 55.28 54.69 54.43 53.71 52.35 51.07 50.02
49.02 49.86 50.41 51.04 50.41 50.82 50.24 55.56 57.16 57.57 58.27 58.86 57.69 57.79 57.86 58.26 59.22 59.76 60.20 60.82 60.66 60.44 59.78 60.35 60.42 60.54 60.45 60.35 60.64 59.81 59.38 59.18 59.06 58.66 58.17 56.36 54.74 53.88 51.99 52.22 51.01 49.63 48.59
44.88 46.65 48.57 50.26 51.16 50.92 53.13 55.61 56.66 56.81 56.92 56.86 56.94 56.98 57.43 58.75 59.49 59.54 59.84 59.95 60.37 59.97 60.24 60.06 59.78 59.91 59.74 59.84 59.47 58.84 58.68 58.39 58.10 57.64 57.49 56.02 54.63 53.69 51.82 50.39 50.01 48.66 47.71
42.75 43.74 44.47 46.21 47.87 48.97 50.09 50.78 52.31 53.44 53.56 53.51 53.12 53.31 54.41 55.19 56.61 57.27 57.52 58.11 58.59 58.49 58.34 57.77 57.72 57.88 58.09 58.53 58.59 58.29 58.29 57.76 57.14 56.43 56.04 55.10 53.31 51.27 51.80 50.72 48.78 47.40 46.02
41.15 42.13 42.75 43.72 44.46 46.22 47.90 48.84 49.51 49.89 50.78 50.32 50.05 50.68 50.57 50.38 50.58 50.85 50.94 51.48 52.34 53.48 56.43 56.07 56.12 55.93 54.85 52.75 53.40 55.94 56.92 56.44 56.07 55.06 53.97 53.51 48.50 49.52 50.64 50.08 49.18 48.64 46.27
40.00 41.09 41.56 42.25 43.29 44.10 45.25 46.13 47.71 48.68 48.03 47.81 48.20 48.78 49.08 48.70 48.68 48.82 48.68 48.34 47.94 48.07 47.37 47.71 48.45 48.07 48.78 49.93 51.07 51.59 53.16 53.55 53.97 53.48 50.38 46.55 47.28 48.29 49.20 49.15 48.48 47.67 47.64
38.96 40.04 40.81 41.47 42.32 43.47 43.87 44.71 45.30 45.84 46.15 45.87 46.26 46.97 46.76 46.03 46.37 46.63 46.38 46.16 46.59 46.23 45.97 45.58 45.81 45.50 46.21 47.47 47.58 47.26 46.24 45.54 44.96 45.39 45.65 46.08 44.72 45.45 45.51 44.24 41.95 42.02 42.54
38.45 39.19 40.43 40.77 41.22 41.74 42.79 42.76 42.49 42.96 43.44 43.55 44.07 44.72 45.13 44.33 43.65 42.87 42.93 43.56 43.96 44.10 44.08 44.75 44.74 44.43 44.49 45.50 45.73 45.03 44.08 43.35 42.66 43.33 43.46 43.46 42.72 44.95 44.48 40.91 38.50 38.28 38.58
38.06 37.97 38.98 39.70 39.81 40.18 41.73 41.17 40.52 40.53 40.19 40.98 41.64 42.50 42.94 42.71 41.88 41.46 40.97 40.94 41.76 42.06 42.67 42.41 43.16 44.55 43.48 45.48 45.26 44.09 43.30 41.96 41.60 41.86 42.18 43.43 42.33 44.79 44.39 39.46 38.56 36.57 36.83
37.07 37.22 37.25 36.72 37.23 39.43 40.12 38.74 38.79 38.19 39.67 40.11 40.35 40.15 40.08 39.96 40.11 39.65 39.67 39.44 39.30 39.47 39.44 39.91 40.48 40.91 42.40 43.01 44.81 44.32 42.41 41.78 40.66 40.44 40.24 41.47 43.87 44.59 44.79 42.14 38.73 38.17 36.95
35.54 35.69 34.82 34.62 35.30 36.54 39.22 38.36 37.48 38.30 39.01 39.41 38.87 38.31 38.25 38.80 38.21 37.12 37.14 37.30 37.52 37.26 37.23 38.03 38.51 39.71 40.38 43.35 43.69 44.06 42.79 42.06 39.45 38.85 39.26 39.82 43.04 43.93 44.49 42.87 40.66 41.02 38.99
34.60 34.62 33.87 33.69 33.93 34.24 34.50 34.53 34.30 36.57 36.59 36.58 36.46 37.28 37.45 37.44 37.57 36.55 35.98 35.96 36.09 35.90 35.35 35.32 35.24 35.95 37.82 38.45 42.29 44.23 44.49 44.12 40.29 39.62 39.48 40.26 41.76 43.49 43.37 42.73 41.33 41.68 34.14
34.04 34.22 34.23 33.42 32.41 32.53 33.28 32.71 33.46 34.84 34.29 33.53 33.53 34.18 35.20 35.11 36.13 38.39 38.66 37.36 38.56 38.50 37.62 36.06 37.03 37.98 37.89 37.74 37.98 38.47 39.38 42.37 43.11 41.30 39.91 41.04 40.97 42.02 40.39 40.49 40.63 37.47 35.03
34.35 33.98 33.63 33.20 32.30 32.71 32.54 32.51 33.23 33.81 33.15 32.52 32.62 32.13 32.46 31.92 32.07 33.21 35.19 35.77 37.50 38.63 38.25 38.82 39.20 38.55 38.50 39.87 42.24 41.61 39.52 39.57 40.55 41.25 36.51 35.56 35.08 34.82 34.41 33.74 33.99 34.13 34.02
33.85 33.13 32.79 32.23 32.06 32.01 31.44 31.60 32.41 32.76 31.93 31.23 31.26 32.20 30.10 32.84 33.08 33.02 32.67 36.49 36.95 38.08 38.68 39.35 38.85 38.80 40.71 41.45 42.07 42.39 42.03 41.73 42.26 38.37 34.66 34.26 34.40 34.28 34.18 33.80 33.52 32.91 34.02
MSLP
1009.40 1009.82 1009.67 1009.66 1009.92 1010.16 1010.35 1010.42 1010.69 1010.79 1011.20 1011.54 1011.91 1012.11 1012.02 1012.13 1012.38 1012.43 1013.08 1013.66 1014.08 1014.43 1014.86 1015.61 1016.50 1016.81 1017.17 1017.79 1018.61 1019.23 1019.83 1020.35 1020.51 1021.20 1021.88 1021.86 1021.94 1021.88 1021.88 1021.82 1021.94 1021.92 1022.16
1008.99 1008.66 1008.70 1008.93 1009.14 1009.25 1009.39 1009.55 1009.68 1010.08 1010.26 1010.61 1011.01 1011.30 1011.61 1011.83 1011.68 1012.05 1012.43 1012.93 1013.43 1014.03 1014.56 1014.85 1015.80 1016.34 1016.87 1017.50 1018.18 1018.66 1019.47 1019.93 1020.15 1020.81 1021.67 1022.15 1022.30 1022.14 1022.13 1022.02 1022.14 1022.10 1022.27
1008.42 1008.08 1008.02 1007.88 1008.28 1008.58 1008.53 1008.62 1008.82 1009.04 1009.49 1009.84 1010.43 1010.82 1011.21 1011.46 1011.86 1012.25 1012.08 1012.55 1012.80 1013.45 1013.91 1014.43 1014.97 1015.80 1016.64 1016.88 1017.54 1018.11 1018.46 1019.18 1019.91 1019.95 1020.61 1021.78 1021.86 1022.08 1022.25 1022.32 1022.38 1022.41 1022.43
1008.06 1007.26 1007.11 1007.06 1007.06 1007.28 1007.60 1007.60 1007.67 1007.92 1008.47 1008.89 1009.42 1009.80 1010.09 1010.56 1010.78 1010.88 1011.15 1011.75 1012.19 1012.83 1013.42 1013.94 1014.37 1014.96 1016.40 1016.56 1017.03 1017.52 1017.84 1018.29 1019.28 1019.99 1020.09 1020.34 1020.78 1021.58 1022.39 1022.48 1022.56 1022.52 1022.50
1007.50 1006.80 1006.22 1005.88 1005.88 1005.93 1006.32 1006.47 1006.92 1006.86 1007.19 1007.83 1008.20 1008.86 1009.32 1009.57 1009.59 1010.11 1010.60 1011.15 1011.50 1011.85 1012.58 1013.20 1013.99 1014.80 1015.64 1015.97 1016.58 1017.15 1017.40 1017.74 1018.57 1019.10 1019.90 1020.38 1020.71 1020.92 1021.53 1022.29 1022.56 1022.61 1022.51
1006.51 1005.76 1005.27 1005.28 1005.36 1005.32 1005.42 1005.64 1005.94 1006.17 1006.63 1006.82 1007.55 1007.88 1008.51 1008.99 1009.34 1009.60 1010.25 1010.42 1011.04 1011.22 1012.00 1012.94 1013.78 1014.55 1014.93 1015.37 1016.04 1016.59 1016.84 1017.29 1017.87 1018.55 1019.02 1019.51 1020.09 1020.54 1020.97 1021.74 1022.20 1022.38 1022.71
1006.04 1005.36 1004.82 1004.73 1004.60 1004.55 1004.72 1004.98 1005.15 1005.46 1005.73 1006.12 1006.62 1006.98 1007.54 1008.11 1008.35 1008.62 1009.04 1009.41 1009.78 1010.01 1011.05 1012.23 1013.07 1013.95 1014.25 1014.62 1015.54 1016.06 1016.42 1016.94 1017.40 1017.93 1018.46 1018.80 1019.11 1019.58 1020.16 1020.80 1021.51 1022.17 1022.73
1005.63 1005.01 1004.48 1004.27 1003.93 1003.59 1003.76 1004.11 1004.38 1004.65 1004.96 1005.39 1005.85 1006.10 1006.61 1007.27 1007.60 1007.62 1007.75 1008.10 1008.55 1008.74 1010.16 1011.48 1012.44 1012.99 1013.41 1014.06 1014.85 1015.40 1015.89 1016.39 1017.03 1017.56 1017.97 1018.43 1018.73 1019.15 1019.45 1019.86 1020.80 1021.96 1022.65
1005.15 1004.29 1003.80 1003.56 1003.14 1002.85 1002.85 1003.16 1003.41 1003.62 1004.03 1004.60 1005.12 1005.56 1006.04 1006.67 1006.73 1006.74 1007.00 1007.27 1007.79 1008.31 1009.61 1010.49 1011.57 1012.48 1012.79 1013.43 1014.20 1014.87 1015.38 1015.90 1016.45 1017.02 1017.50 1017.89 1018.43 1018.87 1019.03 1019.04 1019.75 1020.53 1022.17
1004.37 1004.08 1003.53 1003.26 1002.99 1002.91 1002.55 1002.65 1002.67 1002.89 1003.34 1003.83 1004.41 1004.62 1005.07 1006.01 1006.24 1006.10 1006.22 1006.99 1007.53 1007.98 1009.19 1010.12 1011.18 1011.79 1011.98 1012.84 1013.64 1014.36 1014.99 1015.48 1016.11 1016.61 1017.17 1017.77 1018.16 1018.43 1018.73 1018.91 1019.52 1020.10 1020.73
1002.86 1002.64 1002.58 1002.30 1002.17 1002.44 1002.16 1002.08 1002.14 1002.82 1002.87 1003.00 1003.80 1004.07 1004.71 1005.14 1005.57 1005.60 1005.64 1006.21 1007.26 1007.71 1008.87 1009.82 1010.52 1011.13 1011.36 1012.24 1013.12 1013.87 1014.51 1015.09 1015.72 1016.32 1016.90 1017.53 1017.78 1018.19 1018.44 1018.52 1019.57 1020.14 1020.33
1002.47 1002.38 1002.29 1001.78 1001.91 1001.39 1001.86 1002.08 1002.78 1001.56 1002.54 1002.70 1003.28 1004.13 1004.64 1004.83 1005.08 1005.43 1005.55 1006.10 1007.09 1007.86 1008.87 1009.57 1009.96 1010.26 1011.27 1011.98 1012.65 1013.27 1013.97 1014.56 1015.15 1015.98 1016.52 1017.15 1017.79 1018.17 1018.14 1018.30 1019.00 1019.87 1019.88
1002.99 1003.00 1002.83 1002.88 1002.23 1002.02 1001.69 1001.43 1000.72 1001.40 1001.85 1002.24 1002.93 1003.76 1004.55 1004.98 1005.28 1005.27 1005.46 1006.53 1007.31 1007.95 1008.70 1009.37 1009.71 1010.37 1011.04 1011.81 1012.38 1012.91 1013.57 1013.94 1014.33 1015.56 1015.97 1016.60 1017.14 1017.75 1018.19 1018.65 1018.22 1019.06 1019.31
1004.48 1004.32 1003.71 1003.48 1003.20 1002.25 1001.46 1001.47 1001.73 1001.92 1001.86 1002.35 1002.92 1003.92 1004.29 1004.64 1005.11 1005.39 1006.03 1006.70 1007.09 1007.91 1008.62 1009.21 1009.74 1010.32 1011.14 1011.79 1012.29 1012.85 1013.33 1013.97 1014.31 1014.76 1015.54 1016.08 1016.39 1017.06 1017.54 1018.31 1018.51 1018.53 1019.51
1006.96 1006.06 1004.68 1004.12 1003.70 1002.92 1003.27 1003.30 1003.27 1003.41 1003.60 1003.79 1004.17 1004.42 1004.73 1004.62 1004.88 1005.65 1006.61 1007.12 1007.76 1008.54 1009.27 1009.73 1010.11 1010.65 1011.28 1011.82 1012.32 1012.93 1013.15 1013.50 1013.80 1014.43 1015.10 1015.09 1015.24 1015.85 1016.83 1017.56 1018.00 1018.41 1019.15
1008.07 1007.25 1006.51 1005.80 1005.29 1005.16 1005.01 1004.97 1004.87 1005.34 1005.48 1005.70 1005.88 1006.17 1006.24 1006.35 1006.85 1007.32 1007.95 1008.44 1009.13 1009.43 1009.49 1010.19 1010.57 1011.15 1011.79 1012.15 1012.49 1012.83 1013.04 1013.14 1013.60 1014.20 1014.60 1014.89 1015.09 1015.45 1015.98 1016.83 1017.03 1017.06 1018.23
1010.01 1009.10 1008.60 1008.31 1007.65 1007.26 1006.97 1006.81 1006.78 1006.82 1006.94 1007.34 1007.81 1007.87 1008.31 1008.64 1008.87 1009.03 1009.38 1009.91 1010.12 1010.60 1011.09 1011.15 1011.33 1012.11 1012.32 1012.58 1012.74 1012.87 1012.97 1013.30 1013.21 1013.67 1014.10 1014.66 1015.20 1015.36 1015.69 1015.98 1016.25 1017.27 1017.55
1011.88 1011.41 1010.88 1010.12 1010.05 1009.90 1009.26 1008.88 1008.83 1008.86 1008.83 1009.11 1009.19 1009.34 1009.64 1009.97 1010.32 1010.51 1010.62 1010.78 1010.82 1011.20 1011.70 1012.21 1012.68 1013.02 1013.32 1013.19 1013.29 1013.14 1013.38 1013.19 1013.81 1013.87 1014.07 1014.50 1015.00 1015.35 1016.03 1016.54 1016.43 1017.70 1018.01
1014.16 1013.55 1013.06 1012.71 1012.42 1011.98 1011.70 1011.03 1010.52 1010.44 1010.47 1010.87 1011.24 1011.44 1011.44 1011.48 1011.65 1011.70 1011.89 1012.32 1012.40 1012.48 1012.59 1012.80 1012.87 1012.78 1013.19 1013.22 1013.64 1013.60 1013.86 1014.46 1014.77 1014.83 1014.91 1015.30 1015.43 1015.97 1016.59 1017.18 1017.62 1018.39 1018.35
1015.15 1014.70 1014.22 1013.77 1013.36 1013.47 1013.34 1012.59 1012.74 1012.79 1012.84 1012.85 1012.97 1012.78 1012.70 1012.96 1013.30 1013.31 1013.23 1013.40 1013.65 1014.04 1014.14 1014.27 1014.04 1013.88 1014.17 1014.08 1013.49 1014.01 1014.44 1014.52 1015.15 1015.38 1015.61 1015.53 1016.03 1016.53 1016.82 1017.26 1017.79 1018.57 1018.57
1016.24 1015.82 1014.99 1015.07 1015.13 1014.78 1014.48 1014.22 1014.52 1014.39 1014.78 1014.45 1014.60 1014.43 1014.18 1014.11 1014.09 1014.49 1014.58 1014.40 1014.18 1014.25 1014.47 1014.42 1014.71 1014.87 1014.94 1014.70 1014.72 1014.87 1014.89 1014.46 1015.14 1015.28 1015.83 1016.26 1016.68 1016.59 1016.85 1017.58 1017.42 1017.80 1018.68
1016.85 1016.44 1016.38 1016.89 1016.90 1016.40 1016.20 1016.61 1016.10 1016.05 1015.85 1015.32 1015.44 1015.49 1015.42 1015.32 1015.22 1015.07 1015.19 1015.24 1015.27 1015.27 1015.06 1015.04 1015.22 1015.29 1015.38 1015.28 1015.20 1015.07 1014.80 1015.18 1015.67 1015.17 1015.38 1015.95 1016.28 1016.66 1016.93 1017.35 1017.80 1018.17 1018.80
1017.53 1017.35 1017.64 1017.51 1017.19 1016.91 1016.46 1017.04 1017.33 1017.30 1016.77 1016.14 1016.64 1016.58 1016.30 1016.43 1016.32 1015.78 1016.16 1016.31 1016.22 1016.24 1016.31 1016.13 1015.97 1015.82 1015.79 1016.00 1015.84 1015.47 1015.44 1015.44 1015.31 1015.55 1015.83 1015.94 1016.21 1016.05 1016.39 1016.95 1017.60 1017.94 1018.42
1018.16 1018.23 1018.09 1018.08 1018.30 1018.61 1018.40 1018.00 1018.10 1017.90 1017.67 1017.83 1017.79 1017.81 1017.96 1017.81 1017.82 1016.95 1016.64 1017.03 1016.99 1016.79 1016.85 1016.64 1016.37 1016.18 1016.16 1016.01 1015.87 1015.84 1015.76 1015.68 1015.71 1015.68 1015.71 1015.67 1015.89 1016.42 1016.55 1016.77 1016.88 1017.31 1017.77
1018.16 1018.24 1018.13 1018.44 1018.91 1018.46 1018.27 1018.45 1018.69 1018.50 1018.22 1018.54 1019.00 1018.93 1018.73 1018.51 1018.37 1018.13 1017.82 1017.84 1017.76 1017.67 1017.21 1017.14 1016.75 1016.51 1016.37 1016.25 1016.22 1015.96 1015.72 1015.62 1015.66 1015.77 1015.87 1016.04 1016.13 1016.16 1016.37 1016.68 1016.96 1017.23 1017.59
1018.41 1018.64 1018.75 1018.95 1019.25 1019.22 1019.32 1019.47 1019.13 1019.13 1019.39 1019.48 1019.41 1018.94 1018.87 1018.80 1018.94 1018.86 1018.34 1017.70 1017.58 1017.62 1017.49 1017.13 1017.17 1016.67 1016.30 1016.42 1016.26 1016.22 1015.87 1015.61 1015.55 1015.70 1015.93 1016.26 1016.29 1016.20 1016.28 1016.40 1016.63 1016.85 1017.00
Wind_Speed
23 17 16 12 13 13 14 14 13 13 7 4 7 5 7 7 8 8 12 13 13 15 14 10 10 10 10 10 9 4 6 2 3 4 2 2 2 2 1 1 2 2 3
20 18 16 14 13 16 15 16 15 14 12 8 7 4 5 7 10 11 13 14 14 15 13 13 12 12 9 8 9 6 4 3 5 4 3 2 2 1 1 2 1 3 2
22 18 16 16 11 15 17 16 17 17 15 14 7 3 6 1 5 8 7 13 15 15 16 14 12 12 10 9 11 9 9 5 3 4 5 2 4 2 0 1 0 1 1
15 17 15 14 14 14 15 17 17 18 16 16 12 14 11 11 8 11 11 12 15 11 13 14 14 13 9 10 10 9 8 6 8 1 1 1 4 4 2 0 1 1 1
11 14 16 17 15 12 13 15 17 17 18 16 16 12 12 9 9 10 11 16 16 16 16 11 9 10 10 10 11 10 9 8 6 4 3 2 2 2 3 3 2 1 1
12 11 14 12 12 8 12 13 15 15 17 14 15 15 14 11 10 13 13 12 13 14 17 17 12 13 12 11 10 11 10 8 6 4 4 4 4 4 3 3 2 3 1
9 8 8 8 10 10 12 12 14 14 12 14 14 15 14 14 15 15 15 15 13 13 16 18 17 13 13 12 11 10 9 9 8 10 6 3 4 4 3 4 2 3 2
11 8 8 8 10 11 13 14 14 14 13 13 13 12 14 11 12 13 14 14 14 15 18 16 16 16 15 13 12 9 8 8 7 9 7 4 4 4 4 4 5 2 2
16 13 9 8 9 10 13 15 16 16 14 14 12 13 12 10 12 14 14 13 16 15 17 17 17 18 16 14 12 9 9 9 8 8 7 4 4 4 4 3 4 5 5
13 7 7 6 6 6 7 7 12 13 12 14 12 13 14 10 5 7 17 14 10 12 15 17 17 15 14 13 12 8 8 9 6 6 7 5 4 4 4 3 3 3 4
10 7 4 6 6 5 6 6 4 7 11 13 11 11 12 11 7 6 11 13 11 11 12 15 15 14 13 12 12 10 10 11 9 6 7 7 6 5 5 4 3 3 3
4 2 3 5 3 1 3 3 12 17 17 12 12 9 6 6 7 12 10 12 12 12 15 13 13 12 11 12 12 12 11 12 11 10 9 8 4 6 5 7 7 4 2
14 8 4 4 2 3 10 13 7 6 6 9 10 7 7 9 7 9 12 12 12 10 8 9 9 10 10 11 11 11 12 13 12 10 10 10 10 8 5 5 7 6 5
19 15 12 6 4 4 8 8 9 9 12 12 11 10 5 9 9 8 9 8 8 9 7 6 8 9 10 10 10 11 11 11 10 11 12 12 13 12 11 9 8 6 5
17 12 17 15 16 15 14 14 13 14 13 14 13 13 14 11 11 11 9 8 5 6 6 6 5 5 5 6 8 9 10 11 11 10 12 13 15 15 13 9 9 7 4
21 19 19 20 18 18 16 17 15 15 15 15 15 14 14 14 14 12 12 11 7 7 7 6 6 5 3 3 7 7 8 10 12 12 11 9 11 14 18 14 15 14 10
19 20 20 19 18 18 16 17 15 15 16 15 13 13 12 12 11 11 12 11 11 10 9 9 9 8 7 9 6 5 3 7 10 11 9 6 5 8 9 14 15 10 9
19 18 16 17 17 15 16 15 15 14 14 14 13 11 12 11 9 9 9 8 7 8 6 7 7 7 6 11 9 9 4 5 4 4 2 2 4 3 5 5 7 5 5
12 12 11 11 12 14 13 14 15 15 15 15 13 12 11 11 10 11 10 8 6 7 6 5 5 7 6 11 9 7 5 5 4 3 5 4 5 7 8 5 5 4 2
11 12 12 12 15 15 11 14 15 14 14 12 10 10 10 10 9 7 7 5 5 6 5 6 6 7 4 6 10 7 2 5 3 3 3 6 6 8 11 7 8 6 5
9 7 13 12 11 10 10 14 12 14 9 9 9 10 10 9 8 7 6 5 5 5 6 6 5 5 5 5 6 4 0 5 3 3 2 0 6 10 11 6 4 5 6
9 10 10 9 8 9 10 12 14 9 7 8 10 9 8 7 6 7 6 6 7 7 6 6 5 4 4 3 0 3 4 2 1 2 3 4 8 8 8 7 7 8 8
5 7 6 8 10 11 11 11 7 7 7 11 10 9 9 8 7 7 7 5 6 5 4 4 4 4 4 3 8 6 4 3 3 3 4 6 9 12 11 14 12 11 5
3 2 5 7 7 3 4 6 7 6 8 8 9 8 7 7 7 6 6 6 7 5 4 4 4 4 3 3 3 3 4 5 4 4 4 6 9 10 7 7 9 4 6
1 2 5 5 4 5 8 6 6 6 7 6 5 5 5 6 5 5 5 4 5 6 3 4 2 3 4 3 6 5 3 2 4 4 0 1 2 4 4 3 3 2 3
2 2 2 2 1 4 5 5 6 6 4 4 4 5 3 4 5 5 4 9 12 13 13 12 9 5 10 12 10 8 6 4 7 2 1 2 3 4 5 5 5 6 9
Wind_Direction
263 258 247 229 211 212 220 223 216 211 201 163 189 195 189 197 194 181 184 190 187 188 182 178 182 181 178 182 181 146 158 146 149 104 39 19 7 130 135 108 124 106 107
261 253 242 237 195 214 215 217 219 213 208 192 185 174 181 202 200 199 193 188 191 187 190 180 186 186 180 166 174 162 144 138 171 139 114 176 319 14 119 110 134 119 110
271 255 241 233 214 203 212 215 214 210 209 203 181 170 184 73 198 203 185 194 195 192 194 191 188 182 192 180 179 180 170 150 182 181 143 140 215 142 258 136 107 160 123
282 260 240 233 228 209 208 215 208 207 207 199 199 193 195 194 192 196 197 185 194 193 188 193 184 182 192 184 187 184 182 143 177 172 178 104 144 167 175 309 203 213 200
260 253 236 228 228 223 206 208 212 206 205 200 198 201 202 200 193 193 187 193 192 184 179 180 190 190 190 188 184 181 169 177 160 162 145 132 87 95 133 173 211 291 283
273 264 241 240 236 213 210 207 199 199 206 191 198 197 206 204 192 191 199 195 191 188 190 190 189 203 195 179 184 187 177 169 163 160 161 164 163 181 153 128 173 163 157
269 279 250 225 224 195 194 203 202 200 195 196 204 203 205 211 209 203 196 187 190 187 188 184 187 197 192 179 182 183 177 175 178 180 185 163 178 152 143 131 148 143 173
294 265 256 247 222 207 193 199 198 204 190 193 206 205 207 221 212 210 201 197 190 180 174 182 190 193 185 179 182 182 179 172 174 178 180 180 173 192 167 154 144 113 203
297 270 261 256 239 211 199 194 195 199 186 195 198 196 181 199 212 201 194 191 192 181 175 174 192 188 180 174 173 176 175 175 173 185 176 159 190 198 178 168 151 152 188
274 271 262 267 277 244 212 198 198 194 192 189 187 187 183 173 168 212 180 174 163 163 171 177 188 187 170 168 171 169 169 168 174 173 169 195 177 185 171 165 165 214 191
279 217 222 237 233 255 236 213 267 200 216 202 184 178 191 181 175 140 163 161 159 158 170 182 184 183 168 166 171 170 168 175 171 162 174 207 174 186 177 132 169 195 211
322 175 209 273 119 251 345 227 224 239 204 178 168 164 178 189 175 177 166 154 161 172 181 183 177 164 171 173 175 171 175 178 176 179 176 194 172 194 189 170 180 187 202
39 41 67 96 86 331 278 205 120 104 159 184 163 149 166 182 188 169 146 156 152 158 159 171 165 168 173 179 182 181 191 184 176 185 192 187 179 190 183 221 181 181 187
34 22 17 26 134 73 59 68 81 76 76 72 88 103 153 171 165 124 125 132 137 143 156 172 168 163 180 182 185 188 187 192 189 178 197 198 184 193 192 197 204 175 192
34 33 38 37 41 45 56 50 52 59 55 62 61 55 53 50 72 86 96 97 124 128 147 144 151 152 177 184 181 194 192 191 186 193 207 199 191 194 198 190 188 155 156
28 32 34 41 34 40 47 51 54 56 59 56 56 56 55 47 51 51 52 50 61 46 113 117 127 133 131 141 207 203 193 193 193 205 207 212 196 191 188 188 180 171 175
23 27 31 34 30 32 36 46 51 55 57 58 54 56 58 63 65 69 69 64 60 59 53 48 58 56 46 43 29 290 231 212 201 206 196 176 195 194 189 174 165 178 170
17 26 27 31 33 35 38 46 46 51 58 52 51 55 61 56 52 65 70 68 72 79 86 82 89 83 65 63 69 77 62 81 42 66 65 143 129 130 143 128 97 130 139
12 17 25 37 38 36 34 45 48 46 49 48 45 43 45 50 42 43 40 30 49 62 56 51 72 103 93 83 74 73 74 49 54 66 92 115 109 130 133 115 122 145 146
17 18 20 32 33 21 31 51 48 48 40 38 39 41 47 52 55 55 60 59 60 52 44 42 43 63 62 73 95 94 105 98 88 76 85 125 147 186 173 162 159 182 192
25 14 41 40 23 17 35 51 47 46 30 38 41 40 37 41 41 38 21 35 65 72 68 77 60 48 31 31 61 77 23 135 151 123 121 164 222 196 192 198 178 185 152
18 27 48 39 27 24 54 57 43 12 19 39 38 36 35 35 39 55 42 39 33 31 33 37 31 28 19 24 94 124 96 85 311 176 171 200 208 211 203 197 218 215 177
33 27 40 41 21 21 29 42 19 24 38 46 34 28 32 26 20 47 37 34 36 41 32 35 36 10 7 354 345 327 285 215 164 179 219 216 222 192 187 190 199 194 154
71 37 61 54 38 5 72 63 35 30 43 49 32 20 23 30 17 34 37 32 28 30 23 20 16 4 3 2 355 338 331 318 249 225 234 207 201 219 209 204 200 181 173
64 49 61 59 34 20 41 39 21 21 44 42 26 36 41 36 25 29 41 44 30 25 21 10 349 351 344 353 343 342 328 325 296 289 101 206 196 189 187 186 209 194 189
154 134 138 104 66 51 48 27 31 30 38 46 16 40 32 28 24 19 9 28 24 20 25 30 26 0 12 4 344 319 311 333 319 270 244 255 228 225 214 208 211 208 219